Year,Month,Day,Hour,Minute,Value (Times are PST for windgust in km/hr)
2018,04,11,00,00,3.20
2018,04,11,00,01,3.20
2018,04,11,00,02,3.20
2018,04,11,00,03,6.40
2018,04,11,00,04,4.80
2018,04,11,00,05,9.60
2018,04,11,00,06,6.40
2018,04,11,00,07,4.80
2018,04,11,00,08,4.80
2018,04,11,00,09,9.60
2018,04,11,00,10,6.40
2018,04,11,00,11,6.40
2018,04,11,00,12,3.20
2018,04,11,00,13,1.60
2018,04,11,00,15,1.60
2018,04,11,00,16,3.20
2018,04,11,00,17,3.20
2018,04,11,00,18,4.80
2018,04,11,00,19,6.40
2018,04,11,00,20,6.40
2018,04,11,00,21,6.40
2018,04,11,00,22,4.80
2018,04,11,00,23,6.40
2018,04,11,00,24,6.40
2018,04,11,00,25,8.10
2018,04,11,00,26,8.10
2018,04,11,00,27,9.60
2018,04,11,00,28,3.20
2018,04,11,00,29,4.80
2018,04,11,00,30,4.80
2018,04,11,00,31,6.40
2018,04,11,00,32,4.80
2018,04,11,00,33,8.10
2018,04,11,00,34,6.40
2018,04,11,00,35,6.40
2018,04,11,00,36,6.40
2018,04,11,00,37,4.80
2018,04,11,00,38,8.10
2018,04,11,00,39,9.60
2018,04,11,00,40,11.30
2018,04,11,00,41,9.60
2018,04,11,00,42,8.10
2018,04,11,00,43,9.60
2018,04,11,00,44,9.60
2018,04,11,00,45,8.10
2018,04,11,00,46,8.10
2018,04,11,00,47,8.10
2018,04,11,00,48,8.10
2018,04,11,00,49,6.40
2018,04,11,00,50,8.10
2018,04,11,00,51,6.40
2018,04,11,00,52,6.40
2018,04,11,00,53,9.60
2018,04,11,00,54,8.10
2018,04,11,00,55,9.60
2018,04,11,00,56,4.80
2018,04,11,00,57,4.80
2018,04,11,00,58,6.40
2018,04,11,00,59,6.40
2018,04,11,01,00,6.40
2018,04,11,01,01,4.80
2018,04,11,01,02,6.40
2018,04,11,01,03,4.80
2018,04,11,01,04,4.80
2018,04,11,01,05,6.40
2018,04,11,01,06,6.40
2018,04,11,01,07,3.20
2018,04,11,01,08,3.20
2018,04,11,01,09,4.80
2018,04,11,01,10,3.20
2018,04,11,01,11,4.80
2018,04,11,01,14,1.60
2018,04,11,01,17,1.60
2018,04,11,01,18,3.20
2018,04,11,01,19,1.60
2018,04,11,01,20,3.20
2018,04,11,01,24,1.60
2018,04,11,01,25,3.20
2018,04,11,01,26,3.20
2018,04,11,01,27,1.60
2018,04,11,01,40,1.60
2018,04,11,02,06,1.60
2018,04,11,02,07,1.60
2018,04,11,02,16,1.60
2018,04,11,02,17,3.20
2018,04,11,02,18,3.20
2018,04,11,02,19,3.20
2018,04,11,02,20,3.20
2018,04,11,02,21,1.60
2018,04,11,02,22,1.60
2018,04,11,02,23,3.20
2018,04,11,02,24,3.20
2018,04,11,02,25,6.40
2018,04,11,02,26,9.60
2018,04,11,02,27,11.30
2018,04,11,02,28,12.90
2018,04,11,02,29,9.60
2018,04,11,02,30,11.30
2018,04,11,02,31,9.60
2018,04,11,02,32,9.60
2018,04,11,02,33,11.30
2018,04,11,02,34,8.10
2018,04,11,02,35,8.10
2018,04,11,02,36,9.60
2018,04,11,02,37,9.60
2018,04,11,02,38,11.30
2018,04,11,02,39,8.10
2018,04,11,02,40,9.60
2018,04,11,02,41,8.10
2018,04,11,02,42,3.20
2018,04,11,02,43,6.40
2018,04,11,02,44,6.40
2018,04,11,02,45,6.40
2018,04,11,02,46,6.40
2018,04,11,02,47,3.20
2018,04,11,02,48,6.40
2018,04,11,02,49,4.80
2018,04,11,02,50,3.20
2018,04,11,02,51,4.80
2018,04,11,02,52,4.80
2018,04,11,02,53,3.20
2018,04,11,02,54,8.10
2018,04,11,02,55,6.40
2018,04,11,02,56,6.40
2018,04,11,02,57,4.80
2018,04,11,02,58,6.40
2018,04,11,02,59,8.10
2018,04,11,03,00,8.10
2018,04,11,03,01,3.20
2018,04,11,03,02,3.20
2018,04,11,03,03,4.80
2018,04,11,03,04,4.80
2018,04,11,03,05,3.20
2018,04,11,03,06,4.80
2018,04,11,03,07,4.80
2018,04,11,03,08,1.60
2018,04,11,03,09,3.20
2018,04,11,03,10,3.20
2018,04,11,03,11,4.80
2018,04,11,03,12,4.80
2018,04,11,03,13,4.80
2018,04,11,03,14,3.20
2018,04,11,03,15,4.80
2018,04,11,03,16,4.80
2018,04,11,03,17,6.40
2018,04,11,03,18,6.40
2018,04,11,03,19,6.40
2018,04,11,03,20,8.10
2018,04,11,03,21,6.40
2018,04,11,03,22,8.10
2018,04,11,03,23,6.40
2018,04,11,03,24,6.40
2018,04,11,03,25,4.80
2018,04,11,03,26,4.80
2018,04,11,03,27,3.20
2018,04,11,03,28,3.20
2018,04,11,03,29,1.60
2018,04,11,03,32,3.20
2018,04,11,03,33,3.20
2018,04,11,03,34,3.20
2018,04,11,03,35,3.20
2018,04,11,03,36,3.20
2018,04,11,03,37,3.20
2018,04,11,03,38,4.80
2018,04,11,03,39,4.80
2018,04,11,03,40,4.80
2018,04,11,03,41,3.20
2018,04,11,03,42,4.80
2018,04,11,03,43,4.80
2018,04,11,03,44,3.20
2018,04,11,03,45,3.20
2018,04,11,03,47,1.60
2018,04,11,03,48,1.60
2018,04,11,03,49,4.80
2018,04,11,03,50,4.80
2018,04,11,03,51,3.20
2018,04,11,03,52,1.60
2018,04,11,03,53,4.80
2018,04,11,03,54,4.80
2018,04,11,03,55,3.20
2018,04,11,03,56,3.20
2018,04,11,03,57,3.20
2018,04,11,03,58,4.80
2018,04,11,03,59,4.80
2018,04,11,04,00,1.60
2018,04,11,04,01,1.60
2018,04,11,04,02,3.20
2018,04,11,04,03,1.60
2018,04,11,04,05,3.20
2018,04,11,04,06,3.20
2018,04,11,04,07,4.80
2018,04,11,04,08,4.80
2018,04,11,04,09,4.80
2018,04,11,04,10,4.80
2018,04,11,04,11,6.40
2018,04,11,04,12,6.40
2018,04,11,04,13,6.40
2018,04,11,04,14,6.40
2018,04,11,04,15,6.40
2018,04,11,04,16,6.40
2018,04,11,04,17,6.40
2018,04,11,04,18,8.10
2018,04,11,04,19,6.40
2018,04,11,04,20,8.10
2018,04,11,04,21,4.80
2018,04,11,04,22,8.10
2018,04,11,04,23,6.40
2018,04,11,04,24,6.40
2018,04,11,04,25,3.20
2018,04,11,04,26,4.80
2018,04,11,04,27,6.40
2018,04,11,04,28,6.40
2018,04,11,04,29,3.20
2018,04,11,04,30,4.80
2018,04,11,04,31,3.20
2018,04,11,04,32,4.80
2018,04,11,04,33,6.40
2018,04,11,04,34,4.80
2018,04,11,04,35,4.80
2018,04,11,04,36,6.40
2018,04,11,04,37,3.20
2018,04,11,04,38,4.80
2018,04,11,04,39,4.80
2018,04,11,04,40,4.80
2018,04,11,04,41,4.80
2018,04,11,04,42,6.40
2018,04,11,04,43,9.60
2018,04,11,04,44,8.10
2018,04,11,04,45,9.60
2018,04,11,04,46,8.10
2018,04,11,04,47,6.40
2018,04,11,04,48,6.40
2018,04,11,04,49,3.20
2018,04,11,04,52,3.20
2018,04,11,04,56,3.20
2018,04,11,04,57,6.40
2018,04,11,04,58,3.20
2018,04,11,04,59,1.60
2018,04,11,05,00,3.20
2018,04,11,05,01,1.60
2018,04,11,05,02,6.40
2018,04,11,05,04,1.60
2018,04,11,05,05,1.60
2018,04,11,05,06,3.20
2018,04,11,05,07,3.20
2018,04,11,05,08,6.40
2018,04,11,05,09,6.40
2018,04,11,05,10,6.40
2018,04,11,05,11,8.10
2018,04,11,05,12,6.40
2018,04,11,05,13,6.40
2018,04,11,05,14,3.20
2018,04,11,05,15,4.80
2018,04,11,05,16,8.10
2018,04,11,05,17,9.60
2018,04,11,05,18,8.10
2018,04,11,05,19,9.60
2018,04,11,05,20,6.40
2018,04,11,05,21,8.10
2018,04,11,05,22,8.10
2018,04,11,05,23,8.10
2018,04,11,05,24,9.60
2018,04,11,05,25,8.10
2018,04,11,05,26,8.10
2018,04,11,05,27,9.60
2018,04,11,05,28,9.60
2018,04,11,05,29,12.90
2018,04,11,05,30,11.30
2018,04,11,05,31,9.60
2018,04,11,05,32,8.10
2018,04,11,05,33,9.60
2018,04,11,05,34,11.30
2018,04,11,05,35,9.60
2018,04,11,05,36,9.60
2018,04,11,05,37,8.10
2018,04,11,05,38,8.10
2018,04,11,05,39,8.10
2018,04,11,05,40,9.60
2018,04,11,05,41,8.10
2018,04,11,05,42,9.60
2018,04,11,05,43,14.50
2018,04,11,05,44,3.20
2018,04,11,05,45,11.30
2018,04,11,05,46,8.10
2018,04,11,05,47,8.10
2018,04,11,05,48,6.40
2018,04,11,05,49,6.40
2018,04,11,05,50,6.40
2018,04,11,05,51,6.40
2018,04,11,05,52,12.90
2018,04,11,05,53,14.50
2018,04,11,05,54,16.10
2018,04,11,05,55,9.60
2018,04,11,05,56,9.60
2018,04,11,05,57,8.10
2018,04,11,05,58,9.60
2018,04,11,05,59,8.10
2018,04,11,06,00,12.90
2018,04,11,06,01,12.90
2018,04,11,06,02,9.60
2018,04,11,06,03,11.30
2018,04,11,06,04,9.60
2018,04,11,06,05,6.40
2018,04,11,06,06,11.30
2018,04,11,06,07,12.90
2018,04,11,06,08,9.60
2018,04,11,06,09,8.10
2018,04,11,06,10,9.60
2018,04,11,06,11,11.30
2018,04,11,06,12,11.30
2018,04,11,06,13,12.90
2018,04,11,06,14,12.90
2018,04,11,06,15,11.30
2018,04,11,06,16,17.70
2018,04,11,06,17,12.90
2018,04,11,06,18,12.90
2018,04,11,06,19,14.50
2018,04,11,06,20,14.50
2018,04,11,06,21,11.30
2018,04,11,06,22,9.60
2018,04,11,06,23,12.90
2018,04,11,06,24,12.90
2018,04,11,06,25,9.60
2018,04,11,06,26,16.10
2018,04,11,06,27,9.60
2018,04,11,06,28,11.30
2018,04,11,06,29,14.50
2018,04,11,06,30,17.70
2018,04,11,06,31,11.30
2018,04,11,06,32,12.90
2018,04,11,06,33,14.50
2018,04,11,06,34,12.90
2018,04,11,06,35,11.30
2018,04,11,06,36,8.10
2018,04,11,06,37,12.90
2018,04,11,06,38,14.50
2018,04,11,06,39,9.60
2018,04,11,06,40,9.60
2018,04,11,06,41,14.50
2018,04,11,06,42,12.90
2018,04,11,06,43,12.90
2018,04,11,06,44,11.30
2018,04,11,06,45,9.60
2018,04,11,06,46,17.70
2018,04,11,06,47,12.90
2018,04,11,06,48,12.90
2018,04,11,06,49,12.90
2018,04,11,06,50,12.90
2018,04,11,06,51,12.90
2018,04,11,06,52,17.70
2018,04,11,06,53,12.90
2018,04,11,06,54,12.90
2018,04,11,06,55,12.90
2018,04,11,06,56,16.10
2018,04,11,06,57,20.90
2018,04,11,06,58,14.50
2018,04,11,06,59,12.90
2018,04,11,07,00,19.30
2018,04,11,07,01,11.30
2018,04,11,07,02,19.30
2018,04,11,07,03,11.30
2018,04,11,07,04,17.70
2018,04,11,07,05,19.30
2018,04,11,07,06,17.70
2018,04,11,07,07,19.30
2018,04,11,07,08,14.50
2018,04,11,07,09,22.50
2018,04,11,07,10,19.30
2018,04,11,07,11,19.30
2018,04,11,07,12,19.30
2018,04,11,07,13,22.50
2018,04,11,07,14,20.90
2018,04,11,07,15,19.30
2018,04,11,07,16,24.20
2018,04,11,07,17,30.60
2018,04,11,07,18,22.50
2018,04,11,07,19,17.70
2018,04,11,07,20,30.60
2018,04,11,07,21,24.20
2018,04,11,07,22,24.20
2018,04,11,07,23,20.90
2018,04,11,07,24,33.80
2018,04,11,07,25,38.60
2018,04,11,07,26,20.90
2018,04,11,07,27,30.60
2018,04,11,07,28,29.00
2018,04,11,07,29,37.00
2018,04,11,07,30,37.00
2018,04,11,07,31,25.70
2018,04,11,07,32,25.70
2018,04,11,07,33,32.20
2018,04,11,07,34,30.60
2018,04,11,07,35,33.80
2018,04,11,07,36,25.70
2018,04,11,07,37,22.50
2018,04,11,07,38,30.60
2018,04,11,07,39,35.40
2018,04,11,07,40,33.80
2018,04,11,07,41,22.50
2018,04,11,07,42,24.20
2018,04,11,07,43,33.80
2018,04,11,07,44,32.20
2018,04,11,07,45,32.20
2018,04,11,07,46,33.80
2018,04,11,07,47,30.60
2018,04,11,07,48,32.20
2018,04,11,07,49,35.40
2018,04,11,07,50,27.40
2018,04,11,07,51,24.20
2018,04,11,07,52,24.20
2018,04,11,07,53,14.50
2018,04,11,07,54,35.40
2018,04,11,07,55,35.40
2018,04,11,07,56,30.60
2018,04,11,07,57,25.70
2018,04,11,07,58,30.60
2018,04,11,07,59,25.70
2018,04,11,08,00,22.50
2018,04,11,08,01,25.70
2018,04,11,08,02,32.20
2018,04,11,08,03,22.50
2018,04,11,08,04,30.60
2018,04,11,08,05,25.70
2018,04,11,08,06,29.00
2018,04,11,08,07,25.70
2018,04,11,08,08,25.70
2018,04,11,08,09,35.40
2018,04,11,08,10,30.60
2018,04,11,08,11,32.20
2018,04,11,08,12,27.40
2018,04,11,08,13,33.80
2018,04,11,08,14,24.20
2018,04,11,08,15,37.00
2018,04,11,08,16,22.50
2018,04,11,08,17,32.20
2018,04,11,08,18,38.60
2018,04,11,08,19,25.70
2018,04,11,08,20,29.00
2018,04,11,08,21,25.70
2018,04,11,08,22,35.40
2018,04,11,08,23,48.30
2018,04,11,08,24,25.70
2018,04,11,08,25,30.60
2018,04,11,08,26,30.60
2018,04,11,08,27,35.40
2018,04,11,08,28,24.20
2018,04,11,08,29,25.70
2018,04,11,08,30,25.70
2018,04,11,08,31,48.30
2018,04,11,08,32,35.40
2018,04,11,08,33,25.70
2018,04,11,08,34,32.20
2018,04,11,08,35,35.40
2018,04,11,08,36,25.70
2018,04,11,08,37,35.40
2018,04,11,08,38,27.40
2018,04,11,08,39,38.60
2018,04,11,08,40,37.00
2018,04,11,08,41,24.20
2018,04,11,08,42,35.40
2018,04,11,08,43,33.80
2018,04,11,08,44,33.80
2018,04,11,08,45,33.80
2018,04,11,08,46,43.50
2018,04,11,08,47,41.80
2018,04,11,08,48,29.00
2018,04,11,08,49,35.40
2018,04,11,08,50,38.60
2018,04,11,08,51,35.40
2018,04,11,08,52,20.90
2018,04,11,08,53,33.80
2018,04,11,08,54,29.00
2018,04,11,08,55,33.80
2018,04,11,08,56,33.80
2018,04,11,08,57,38.60
2018,04,11,08,58,24.20
2018,04,11,08,59,29.00
2018,04,11,09,00,20.90
2018,04,11,09,01,35.40
2018,04,11,09,02,37.00
2018,04,11,09,03,33.80
2018,04,11,09,04,35.40
2018,04,11,09,05,35.40
2018,04,11,09,06,29.00
2018,04,11,09,07,30.60
2018,04,11,09,08,38.60
2018,04,11,09,09,24.20
2018,04,11,09,10,24.20
2018,04,11,09,11,38.60
2018,04,11,09,12,33.80
2018,04,11,09,13,37.00
2018,04,11,09,14,25.70
2018,04,11,09,15,22.50
2018,04,11,09,16,33.80
2018,04,11,09,17,22.50
2018,04,11,09,18,22.50
2018,04,11,09,19,33.80
2018,04,11,09,20,35.40
2018,04,11,09,21,30.60
2018,04,11,09,22,35.40
2018,04,11,09,23,24.20
2018,04,11,09,24,20.90
2018,04,11,09,25,38.60
2018,04,11,09,26,40.20
2018,04,11,09,27,35.40
2018,04,11,09,28,37.00
2018,04,11,09,29,37.00
2018,04,11,09,30,22.50
2018,04,11,09,31,25.70
2018,04,11,09,32,22.50
2018,04,11,09,33,30.60
2018,04,11,09,34,32.20
2018,04,11,09,35,27.40
2018,04,11,09,36,30.60
2018,04,11,09,37,35.40
2018,04,11,09,38,30.60
2018,04,11,09,39,37.00
2018,04,11,09,40,38.60
2018,04,11,09,41,32.20
2018,04,11,09,42,41.80
2018,04,11,09,43,38.60
2018,04,11,09,44,27.40
2018,04,11,09,45,40.20
2018,04,11,09,46,48.30
2018,04,11,09,47,43.50
2018,04,11,09,48,40.20
2018,04,11,09,49,37.00
2018,04,11,09,50,33.80
2018,04,11,09,51,33.80
2018,04,11,09,52,33.80
2018,04,11,09,53,33.80
2018,04,11,09,54,40.20
2018,04,11,09,55,56.30
2018,04,11,09,56,37.00
2018,04,11,09,57,38.60
2018,04,11,09,58,29.00
2018,04,11,09,59,25.70
2018,04,11,10,00,37.00
2018,04,11,10,01,35.40
2018,04,11,10,02,37.00
2018,04,11,10,03,48.30
2018,04,11,10,04,35.40
2018,04,11,10,05,38.60
2018,04,11,10,06,37.00
2018,04,11,10,07,48.30
2018,04,11,10,08,24.20
2018,04,11,10,09,32.20
2018,04,11,10,10,30.60
2018,04,11,10,11,20.90
2018,04,11,10,12,22.50
2018,04,11,10,13,38.60
2018,04,11,10,14,33.80
2018,04,11,10,15,35.40
2018,04,11,10,16,32.20
2018,04,11,10,17,30.60
2018,04,11,10,18,33.80
2018,04,11,10,19,32.20
2018,04,11,10,20,29.00
2018,04,11,10,21,38.60
2018,04,11,10,22,33.80
2018,04,11,10,23,25.70
2018,04,11,10,24,30.60
2018,04,11,10,25,33.80
2018,04,11,10,26,29.00
2018,04,11,10,27,38.60
2018,04,11,10,28,25.70
2018,04,11,10,29,30.60
2018,04,11,10,30,32.20
2018,04,11,10,31,32.20
2018,04,11,10,32,37.00
2018,04,11,10,33,30.60
2018,04,11,10,34,30.60
2018,04,11,10,35,38.60
2018,04,11,10,36,35.40
2018,04,11,10,37,25.70
2018,04,11,10,38,40.20
2018,04,11,10,39,43.50
2018,04,11,10,40,29.00
2018,04,11,10,41,30.60
2018,04,11,10,42,40.20
2018,04,11,10,43,25.70
2018,04,11,10,44,46.70
2018,04,11,10,45,48.30
2018,04,11,10,46,41.80
2018,04,11,10,47,20.90
2018,04,11,10,48,40.20
2018,04,11,10,49,46.70
2018,04,11,10,50,41.80
2018,04,11,10,51,37.00
2018,04,11,10,52,48.30
2018,04,11,10,53,37.00
2018,04,11,10,54,37.00
2018,04,11,10,55,48.30
2018,04,11,10,56,46.70
2018,04,11,10,57,27.40
2018,04,11,10,58,43.50
2018,04,11,10,59,35.40
2018,04,11,11,00,40.20
2018,04,11,11,01,45.10
2018,04,11,11,02,45.10
2018,04,11,11,03,43.50
2018,04,11,11,04,43.50
2018,04,11,11,05,43.50
2018,04,11,11,06,40.20
2018,04,11,11,07,51.50
2018,04,11,11,08,41.80
2018,04,11,11,09,48.30
2018,04,11,11,10,43.50
2018,04,11,11,11,38.60
2018,04,11,11,12,43.50
2018,04,11,11,13,37.00
2018,04,11,11,14,32.20
2018,04,11,11,15,51.50
2018,04,11,11,16,41.80
2018,04,11,11,17,30.60
2018,04,11,11,18,43.50
2018,04,11,11,19,49.90
2018,04,11,11,20,37.00
2018,04,11,11,21,48.30
2018,04,11,11,22,41.80
2018,04,11,11,23,45.10
2018,04,11,11,24,46.70
2018,04,11,11,25,41.80
2018,04,11,11,26,38.60
2018,04,11,11,27,54.70
2018,04,11,11,28,48.30
2018,04,11,11,29,33.80
2018,04,11,11,30,46.70
2018,04,11,11,31,35.40
2018,04,11,11,32,43.50
2018,04,11,11,33,41.80
2018,04,11,11,34,49.90
2018,04,11,11,35,32.20
2018,04,11,11,36,43.50
2018,04,11,11,37,54.70
2018,04,11,11,38,32.20
2018,04,11,11,39,40.20
2018,04,11,11,40,43.50
2018,04,11,11,41,30.60
2018,04,11,11,42,38.60
2018,04,11,11,43,51.50
2018,04,11,11,44,38.60
2018,04,11,11,45,29.00
2018,04,11,11,46,48.30
2018,04,11,11,47,37.00
2018,04,11,11,48,35.40
2018,04,11,11,49,33.80
2018,04,11,11,50,45.10
2018,04,11,11,51,45.10
2018,04,11,11,52,43.50
2018,04,11,11,53,53.10
2018,04,11,11,54,41.80
2018,04,11,11,55,40.20
2018,04,11,11,56,40.20
2018,04,11,11,57,45.10
2018,04,11,11,58,40.20
2018,04,11,11,59,40.20
2018,04,11,12,00,43.50
2018,04,11,12,01,43.50
2018,04,11,12,02,37.00
2018,04,11,12,03,53.10
2018,04,11,12,04,48.30
2018,04,11,12,05,59.50
2018,04,11,12,06,45.10
2018,04,11,12,07,53.10
2018,04,11,12,08,35.40
2018,04,11,12,09,59.50
2018,04,11,12,10,59.50
2018,04,11,12,11,64.40
2018,04,11,12,12,46.70
2018,04,11,12,13,51.50
2018,04,11,12,14,56.30
2018,04,11,12,15,53.10
2018,04,11,12,16,57.90
2018,04,11,12,17,48.30
2018,04,11,12,18,53.10
2018,04,11,12,19,56.30
2018,04,11,12,20,43.50
2018,04,11,12,21,45.10
2018,04,11,12,22,57.90
2018,04,11,12,23,53.10
2018,04,11,12,24,49.90
2018,04,11,12,25,40.20
2018,04,11,12,26,45.10
2018,04,11,12,27,38.60
2018,04,11,12,28,43.50
2018,04,11,12,29,33.80
2018,04,11,12,30,40.20
2018,04,11,12,31,45.10
2018,04,11,12,32,40.20
2018,04,11,12,33,57.90
2018,04,11,12,34,54.70
2018,04,11,12,35,53.10
2018,04,11,12,36,49.90
2018,04,11,12,37,64.40
2018,04,11,12,38,45.10
2018,04,11,12,39,48.30
2018,04,11,12,40,53.10
2018,04,11,12,41,54.70
2018,04,11,12,42,43.50
2018,04,11,12,43,54.70
2018,04,11,12,44,61.20
2018,04,11,12,45,51.50
2018,04,11,12,46,59.50
2018,04,11,12,47,43.50
2018,04,11,12,48,48.30
2018,04,11,12,49,46.70
2018,04,11,12,50,38.60
2018,04,11,12,51,37.00
2018,04,11,12,52,41.80
2018,04,11,12,53,49.90
2018,04,11,12,54,51.50
2018,04,11,12,55,40.20
2018,04,11,12,56,57.90
2018,04,11,12,57,43.50
2018,04,11,12,58,61.20
2018,04,11,12,59,40.20
2018,04,11,13,00,54.70
2018,04,11,13,01,38.60
2018,04,11,13,02,57.90
2018,04,11,13,03,46.70
2018,04,11,13,04,33.80
2018,04,11,13,05,38.60
2018,04,11,13,06,51.50
2018,04,11,13,07,43.50
2018,04,11,13,08,53.10
2018,04,11,13,09,46.70
2018,04,11,13,10,40.20
2018,04,11,13,11,45.10
2018,04,11,13,12,48.30
2018,04,11,13,13,54.70
2018,04,11,13,14,62.70
2018,04,11,13,15,45.10
2018,04,11,13,16,43.50
2018,04,11,13,17,61.20
2018,04,11,13,18,49.90
2018,04,11,13,19,69.20
2018,04,11,13,20,41.80
2018,04,11,13,21,41.80
2018,04,11,13,22,49.90
2018,04,11,13,23,48.30
2018,04,11,13,24,54.70
2018,04,11,13,25,51.50
2018,04,11,13,26,40.20
2018,04,11,13,27,53.10
2018,04,11,13,28,61.20
2018,04,11,13,29,57.90
2018,04,11,13,30,46.70
2018,04,11,13,31,32.20
2018,04,11,13,32,40.20
2018,04,11,13,33,49.90
2018,04,11,13,34,38.60
2018,04,11,13,35,53.10
2018,04,11,13,36,59.50
2018,04,11,13,37,49.90
2018,04,11,13,38,53.10
2018,04,11,13,39,49.90
2018,04,11,13,40,57.90
2018,04,11,13,41,38.60
2018,04,11,13,42,45.10
2018,04,11,13,43,56.30
2018,04,11,13,44,51.50
2018,04,11,13,45,49.90
2018,04,11,13,46,37.00
2018,04,11,13,47,62.70
2018,04,11,13,48,75.60
2018,04,11,13,49,57.90
2018,04,11,13,50,57.90
2018,04,11,13,51,40.20
2018,04,11,13,52,46.70
2018,04,11,13,53,49.90
2018,04,11,13,54,70.80
2018,04,11,13,55,40.20
2018,04,11,13,56,37.00
2018,04,11,13,57,35.40
2018,04,11,13,58,37.00
2018,04,11,13,59,41.80
2018,04,11,14,00,57.90
2018,04,11,14,01,45.10
2018,04,11,14,02,45.10
2018,04,11,14,03,35.40
2018,04,11,14,04,33.80
2018,04,11,14,05,48.30
2018,04,11,14,06,37.00
2018,04,11,14,07,40.20
2018,04,11,14,08,48.30
2018,04,11,14,09,57.90
2018,04,11,14,10,43.50
2018,04,11,14,11,41.80
2018,04,11,14,12,49.90
2018,04,11,14,13,41.80
2018,04,11,14,14,53.10
2018,04,11,14,15,24.20
2018,04,11,14,16,37.00
2018,04,11,14,17,45.10
2018,04,11,14,18,38.60
2018,04,11,14,19,49.90
2018,04,11,14,20,43.50
2018,04,11,14,21,32.20
2018,04,11,14,22,41.80
2018,04,11,14,23,35.40
2018,04,11,14,24,32.20
2018,04,11,14,25,33.80
2018,04,11,14,26,35.40
2018,04,11,14,27,57.90
2018,04,11,14,28,49.90
2018,04,11,14,29,35.40
2018,04,11,14,30,24.20
2018,04,11,14,31,27.40
2018,04,11,14,32,46.70
2018,04,11,14,33,48.30
2018,04,11,14,34,35.40
2018,04,11,14,35,38.60
2018,04,11,14,36,32.20
2018,04,11,14,37,48.30
2018,04,11,14,38,37.00
2018,04,11,14,39,49.90
2018,04,11,14,40,25.70
2018,04,11,14,41,35.40
2018,04,11,14,42,45.10
2018,04,11,14,43,33.80
2018,04,11,14,44,45.10
2018,04,11,14,45,29.00
2018,04,11,14,46,38.60
2018,04,11,14,47,35.40
2018,04,11,14,48,37.00
2018,04,11,14,49,45.10
2018,04,11,14,50,38.60
2018,04,11,14,51,54.70
2018,04,11,14,52,37.00
2018,04,11,14,53,30.60
2018,04,11,14,54,43.50
2018,04,11,14,55,45.10
2018,04,11,14,56,32.20
2018,04,11,14,57,37.00
2018,04,11,14,58,53.10
2018,04,11,14,59,62.70
2018,04,11,15,00,35.40
2018,04,11,15,01,20.90
2018,04,11,15,02,14.50
2018,04,11,15,03,25.70
2018,04,11,15,04,35.40
2018,04,11,15,05,57.90
2018,04,11,15,06,51.50
2018,04,11,15,07,53.10
2018,04,11,15,08,51.50
2018,04,11,15,09,38.60
2018,04,11,15,10,19.30
2018,04,11,15,11,25.70
2018,04,11,15,12,54.70
2018,04,11,15,13,37.00
2018,04,11,15,14,19.30
2018,04,11,15,15,20.90
2018,04,11,15,16,20.90
2018,04,11,15,17,37.00
2018,04,11,15,18,30.60
2018,04,11,15,19,20.90
2018,04,11,15,20,40.20
2018,04,11,15,21,33.80
2018,04,11,15,22,45.10
2018,04,11,15,23,43.50
2018,04,11,15,24,51.50
2018,04,11,15,25,46.70
2018,04,11,15,26,48.30
2018,04,11,15,27,33.80
2018,04,11,15,28,33.80
2018,04,11,15,29,37.00
2018,04,11,15,30,30.60
2018,04,11,15,31,35.40
2018,04,11,15,32,38.60
2018,04,11,15,33,19.30
2018,04,11,15,34,43.50
2018,04,11,15,35,38.60
2018,04,11,15,36,35.40
2018,04,11,15,37,46.70
2018,04,11,15,38,37.00
2018,04,11,15,39,38.60
2018,04,11,15,40,45.10
2018,04,11,15,41,53.10
2018,04,11,15,42,37.00
2018,04,11,15,43,43.50
2018,04,11,15,44,56.30
2018,04,11,15,45,40.20
2018,04,11,15,46,40.20
2018,04,11,15,47,38.60
2018,04,11,15,48,38.60
2018,04,11,15,49,32.20
2018,04,11,15,50,38.60
2018,04,11,15,51,29.00
2018,04,11,15,52,33.80
2018,04,11,15,53,33.80
2018,04,11,15,54,33.80
2018,04,11,15,55,54.70
2018,04,11,15,56,38.60
2018,04,11,15,57,40.20
2018,04,11,15,58,35.40
2018,04,11,15,59,45.10
2018,04,11,16,00,48.30
2018,04,11,16,01,51.50
2018,04,11,16,02,30.60
2018,04,11,16,03,30.60
2018,04,11,16,04,48.30
2018,04,11,16,05,45.10
2018,04,11,16,06,40.20
2018,04,11,16,07,40.20
2018,04,11,16,08,29.00
2018,04,11,16,09,27.40
2018,04,11,16,10,40.20
2018,04,11,16,11,32.20
2018,04,11,16,12,38.60
2018,04,11,16,13,32.20
2018,04,11,16,14,35.40
2018,04,11,16,15,29.00
2018,04,11,16,16,33.80
2018,04,11,16,17,32.20
2018,04,11,16,18,45.10
2018,04,11,16,19,45.10
2018,04,11,16,20,24.20
2018,04,11,16,21,45.10
2018,04,11,16,22,45.10
2018,04,11,16,23,30.60
2018,04,11,16,24,33.80
2018,04,11,16,25,33.80
2018,04,11,16,26,35.40
2018,04,11,16,27,32.20
2018,04,11,16,28,43.50
2018,04,11,16,29,37.00
2018,04,11,16,30,16.10
2018,04,11,16,31,29.00
2018,04,11,16,32,32.20
2018,04,11,16,33,35.40
2018,04,11,16,34,33.80
2018,04,11,16,35,51.50
2018,04,11,16,36,43.50
2018,04,11,16,37,43.50
2018,04,11,16,38,38.60
2018,04,11,16,39,35.40
2018,04,11,16,40,43.50
2018,04,11,16,41,45.10
2018,04,11,16,42,46.70
2018,04,11,16,43,37.00
2018,04,11,16,44,37.00
2018,04,11,16,45,32.20
2018,04,11,16,46,45.10
2018,04,11,16,47,41.80
2018,04,11,16,48,32.20
2018,04,11,16,49,40.20
2018,04,11,16,50,45.10
2018,04,11,16,51,38.60
2018,04,11,16,52,37.00
2018,04,11,16,53,38.60
2018,04,11,16,54,25.70
2018,04,11,16,55,30.60
2018,04,11,16,56,40.20
2018,04,11,16,57,40.20
2018,04,11,16,58,45.10
2018,04,11,16,59,54.70
2018,04,11,17,00,33.80
2018,04,11,17,01,29.00
2018,04,11,17,02,20.90
2018,04,11,17,03,25.70
2018,04,11,17,04,35.40
2018,04,11,17,05,32.20
2018,04,11,17,06,20.90
2018,04,11,17,07,27.40
2018,04,11,17,08,27.40
2018,04,11,17,09,30.60
2018,04,11,17,10,33.80
2018,04,11,17,11,33.80
2018,04,11,17,12,22.50
2018,04,11,17,13,24.20
2018,04,11,17,14,37.00
2018,04,11,17,15,38.60
2018,04,11,17,16,25.70
2018,04,11,17,17,16.10
2018,04,11,17,18,22.50
2018,04,11,17,19,32.20
2018,04,11,17,20,24.20
2018,04,11,17,21,32.20
2018,04,11,17,22,29.00
2018,04,11,17,23,27.40
2018,04,11,17,24,27.40
2018,04,11,17,25,19.30
2018,04,11,17,26,17.70
2018,04,11,17,27,25.70
2018,04,11,17,28,25.70
2018,04,11,17,29,24.20
2018,04,11,17,30,22.50
2018,04,11,17,31,16.10
2018,04,11,17,32,11.30
2018,04,11,17,33,19.30
2018,04,11,17,34,24.20
2018,04,11,17,35,24.20
2018,04,11,17,36,24.20
2018,04,11,17,37,22.50
2018,04,11,17,38,19.30
2018,04,11,17,39,17.70
2018,04,11,17,40,17.70
2018,04,11,17,41,16.10
2018,04,11,17,42,14.50
2018,04,11,17,43,17.70
2018,04,11,17,44,20.90
2018,04,11,17,45,19.30
2018,04,11,17,46,11.30
2018,04,11,17,47,19.30
2018,04,11,17,48,17.70
2018,04,11,17,49,12.90
2018,04,11,17,50,19.30
2018,04,11,17,51,20.90
2018,04,11,17,52,19.30
2018,04,11,17,53,19.30
2018,04,11,17,54,19.30
2018,04,11,17,55,19.30
2018,04,11,17,56,19.30
2018,04,11,17,57,16.10
2018,04,11,17,58,12.90
2018,04,11,17,59,16.10
2018,04,11,18,00,17.70
2018,04,11,18,01,14.50
2018,04,11,18,02,14.50
2018,04,11,18,03,16.10
2018,04,11,18,04,22.50
2018,04,11,18,05,14.50
2018,04,11,18,06,16.10
2018,04,11,18,07,19.30
2018,04,11,18,08,19.30
2018,04,11,18,09,16.10
2018,04,11,18,10,14.50
2018,04,11,18,11,14.50
2018,04,11,18,12,16.10
2018,04,11,18,13,12.90
2018,04,11,18,14,17.70
2018,04,11,18,15,11.30
2018,04,11,18,16,9.60
2018,04,11,18,17,19.30
2018,04,11,18,18,14.50
2018,04,11,18,19,14.50
2018,04,11,18,20,12.90
2018,04,11,18,21,16.10
2018,04,11,18,22,16.10
2018,04,11,18,23,22.50
2018,04,11,18,24,11.30
2018,04,11,18,25,16.10
2018,04,11,18,26,20.90
2018,04,11,18,27,16.10
2018,04,11,18,28,12.90
2018,04,11,18,29,17.70
2018,04,11,18,30,17.70
2018,04,11,18,31,19.30
2018,04,11,18,32,17.70
2018,04,11,18,33,17.70
2018,04,11,18,34,16.10
2018,04,11,18,35,9.60